Skip Page Navigation
NASA JPL Caltech
NASA Logo - Jet Propulsion Laboratory + View the NASA Portal
+ Center for Near-Earth Object Studies
JPL Home Earth Solar System Stars & Galaxies Technology
JPL Solar System Dynamics
BODIES ORBITS EPHEMERIDES TOOLS PHYSICAL DATA DISCOVERY FAQ SITE MAP
JPL Small-Body Database Browser
Search: [ help ]  
71590 (2000 DN71)
Classification: Main-belt Asteroid          SPK-ID: 2071590
Ephemeris | Orbit Diagram | Orbital Elements | Mission Design | Physical Parameters | Discovery Circumstances | Close-Approach Data ]

[ show orbit diagram ]
Orbital Elements at Epoch 2459200.5 (2020-Dec-17.0) TDB
Reference: JPL 31 (heliocentric ecliptic J2000)
 Element Value Uncertainty (1-sigma)   Units 
e .1317025062171399 3.2386e-08  
a 3.097552479753969 1.6511e-08 au
q 2.689597055031255 1.0118e-07 au
i .4197306739923626 3.7382e-06 deg
node 217.3541988446943 0.00053213 deg
peri 193.1096770656465 0.00053246 deg
M 37.3291720718214 1.6043e-05 deg
tp 2458994.022709056884
(2020-May-24.52270906)
8.8766e-05 TDB
period 1991.252969567801
5.45
1.5921e-05
4.359e-08
d
yr
n .1807906908373061 1.4455e-09 deg/d
Q 3.505507904476684 1.8685e-08 au
  Orbit Determination Parameters
   # obs. used (total)      1065  
   data-arc span      10289 days (28.17 yr)  
   first obs. used      1992-11-16  
   last obs. used      2021-01-17  
   planetary ephem.      DE431  
   SB-pert. ephem.      SB431-N16  
   condition code      0  
   norm. resid. RMS      .48272  
   source      ORB  
   producer      Otto Matic  
   solution date      2021-Feb-24 06:45:59  

Additional Information
 Earth MOID = 1.69931 au 
 Jupiter MOID = 1.85652 au 
 T_jup = 3.209 
[ hide covariance matrix ]
Orbital Elements at Epoch 2457182.5 (2015-Jun-09.0) TDB
Reference: JPL 31 (heliocentric ecliptic J2000)
 Element Value Uncertainty (1-sigma)   Units 
e .1268804074917016 3.2113e-08  
q 2.705548881519253 9.9502e-08 au
tp 2456990.533962160468
(2014-Nov-29.03396216)
9.7194e-05 TDB
node 218.0072917250812 0.0005485 deg
peri 190.8063324296173 0.00054883 deg
i .4084337387556049 3.7263e-06 deg
  Orbit Determination Parameters
   # obs. used (total)      1065  
   data-arc span      10289 days (28.17 yr)  
   first obs. used      1992-11-16  
   last obs. used      2021-01-17  
   planetary ephem.      DE431  
   SB-pert. ephem.      SB431-N16  
   condition code      0  
   norm. resid. RMS      .48272  
   source      ORB  
   producer      Otto Matic  
   solution date      2021-Feb-24 06:45:59  

Additional Information
 Jupiter MOID = 1.85652 au 
 T_jup = 3.209 
Orbit Covariance (6×6)
  e q tp node peri i
e 1.031263553312417E-15 -3.161392464296265E-15 -7.938793909430044E-13 2.458510307428222E-14 -1.984783000215149E-13 3.507279482040017E-18
q -3.161392464296265E-15 9.90057499705496E-15 2.194661060147659E-12 -6.311650535563047E-14 5.553108114065077E-13 4.807183681028515E-17
tp -7.938793909430044E-13 2.194661060147659E-12 9.44662773463067E-9 -4.055539587343021E-13 1.856665015045874E-9 6.285488655452026E-15
node 2.458510307428222E-14 -6.311650535563047E-14 -4.055539587343021E-13 3.008537659063679E-7 -3.008478366635292E-7 -3.199324372801345E-10
peri -1.984783000215149E-13 5.553108114065077E-13 1.856665015045874E-9 -3.008478366635292E-7 3.012142891563076E-7 3.19920037655158E-10
i 3.507279482040017E-18 4.807183681028515E-17 6.285488655452026E-15 -3.199324372801345E-10 3.19920037655158E-10 1.388500135356303E-11

Ephemeris | Orbit Diagram | Orbital Elements | Mission Design | Physical Parameters | Discovery Circumstances | Close-Approach Data ]

Physical Parameter Table
Parameter Symbol Value Units Sigma Reference Notes
absolute magnitude H 14.6   n/a MPO493368  
diameter diameter 6.699 km 0.196 urn:nasa:pds:neowise_diameters_albedos::2.0[mainbelt] (http://adsabs.harvard.edu/abs/2011ApJ...741...68M)  
geometric albedo albedo 0.068   0.011 urn:nasa:pds:neowise_diameters_albedos::2.0[mainbelt] (http://adsabs.harvard.edu/abs/2011ApJ...741...68M)  

71590 (2000 DN71)          Discovered 2000-Feb-29 by LINEAR at Socorro
Reference: 20031109/Numbers.arcLast Updated: 2004-04-19

[ hide close-approach data ]
Close-Approach Data   ...sorted by Date/Time (TDB)
Date/Time (TDB) Time Uncertainty
(days_HH:MM)
Body Nominal Distance (au) Minimum Distance (au) Maximum Distance (au) V-relative (km/s) V-infinity (km/s) JD (TDB) Time Uncertainty (minutes) Semi-major axis (km) Semi-minor axis (km) range-LOV angle (deg) N-sigma BP Orbit Ref. Reference Modified
1936-Jun-28 09:02 00:02 Jupiter 1.89212876119508 1.89212843256137 1.89212908982867 2.52285707317109 2.33869538511298 2428347.876202838 1.92830223081956 44.7791633501921 6.48918421556375 89.0786008667059 3178837.97522156 T 31 CATAB v2.0f-lin.ifort 2021-Feb-24 06:46:01 2021-Feb-24 06:46
1946-Jun-16 09:48 00:02 Jupiter 1.97951557411005 1.97951508478403 1.97951606343641 2.53094755954827 2.35582424509278 2431987.908501584 1.64810571197022 78.1500476419248 7.29704234445411 83.8771369160759 3374762.89554238 T 31 CATAB v2.0f-lin.ifort 2021-Feb-24 06:46:01 2021-Feb-24 06:46
1997-Jan-05 00:49 < 00:01 Jupiter 1.96718457488575 1.96718414419972 1.96718500557178 3.2306438567733 3.09449635291028 2450453.534045426 0.511992796163985 34.9101193238097 14.9480561855922 87.9829244396753 3254822.15398697 T 31 CATAB v2.0f-lin.ifort 2021-Feb-24 06:46:01 2021-Feb-24 06:46
2006-Dec-21 22:51 < 00:01 Jupiter 1.88711099144586 1.88711070394794 1.88711127894379 2.33828204445214 2.13772556844256 2454091.452059548 0.326607315295858 42.3733111821793 4.24412991159552 89.4681846183953 3981801.23753216 T 31 CATAB v2.0f-lin.ifort 2021-Feb-24 06:46:01 2021-Feb-24 06:46
2067-Jul-01 12:04 00:01 Jupiter 1.89460377868138 1.89460341357311 1.89460414378954 2.68340761678046 2.51128141031886 2476198.002866194 1.26901471576498 37.9468307291099 8.2859717665959 -88.269526053164 2971057.60272356 T 31 CATAB v2.0f-lin.ifort 2021-Feb-24 06:46:01 2021-Feb-24 06:46
2077-Jun-16 08:25 00:02 Jupiter 1.93530543633929 1.93530494787537 1.93530592480342 2.40874947873337 2.21962536325645 2479835.850440494 1.50934725242361 66.9826357983355 7.08388056773884 81.8824830991881 3448918.21874059 T 31 CATAB v2.0f-lin.ifort 2021-Feb-24 06:46:01 2021-Feb-24 06:46
2128-Jan-06 13:06 00:03 Jupiter 1.99512420559178 1.99512346662524 1.99512494455911 3.54768413875448 3.42592618605393 2498301.045520333 2.64493437502143 89.1447990649685 17.5004953511276 77.5639775724048 2938151.16313181 T 31 CATAB v2.0f-lin.ifort 2021-Feb-24 06:46:01 2021-Feb-24 06:46
2137-Dec-23 19:37 00:03 Jupiter 1.86795246120244 1.86795217015168 1.86795275225311 2.38159872809591 2.18291389355982 2501940.317601147 2.96807474917011 59.8049250242498 10.6880771476892 80.8559088522002 3646551.46769939 T 31 CATAB v2.0f-lin.ifort 2021-Feb-24 06:46:01 2021-Feb-24 06:46
2198-Jul-03 19:53 00:04 Jupiter 1.91006506177541 1.9100642643933 1.91006585915774 2.90907904355097 2.75242375396558 2524047.328165343 4.40417505533978 71.9105705913364 12.6123956933627 82.6676436126588 2062716.81586836 T 31 CATAB v2.0f-lin.ifort 2021-Feb-24 06:46:01 2021-Feb-24 06:46

Alternate Designations
 2000 DN71 = 1998 XT58 
Ephemeris | Orbit Diagram | Orbital Elements | Mission Design | Physical Parameters | Discovery Circumstances | Close-Approach Data ]
ABOUT SSD CREDITS/AWARDS PRIVACY/COPYRIGHT GLOSSARY LINKS
FirstGov 2021-Mar-05 01:40 UT
(server date/time)  
NASA Home Page
Site Manager:   Ryan S. Park
Webmaster  Alan B. Chamberlin